DW5856 Weather Reports


Display with metric or nautical units.
time (UTC)temp
F
wind
direction
speed
MPH
gust
MPH
rain 1hr
in
rain 24hr
in
rain mn
in
humidity
%
barometer
mb
20260510054529 48 201 8.0 15.0 0.02 0.03 0.03 84 1014.1
20260510053048 48 176 7.0 8.0 0.03 0.03 0.03 83 1014.3
20260510051527 48 159 6.0 11.0 0.03 0.03 0.03 82 1014.2
20260510050028 49 162 6.0 9.0 0.02 0.02 0.02 81 1014.2
20260510044522 50 267 1.0 4.0 0.01 0.01 0.01 74 1014.1
20260510043036 51 267 0.0 3.0 0.00 0.00 0.00 70 1014.2
20260510041525 51 46 0.0 3.0 0.00 0.00 0.00 67 1014.1
20260510040031 50 46 4.0 6.0 0.00 0.00 0.00 67 1013.6
20260510034512 51 43 4.0 8.0 0.00 0.00 0.00 67 1013.1
20260510033010 51 44 7.0 14.0 0.00 0.00 0.00 66 1012.5
20260510031511 51 349 10.0 15.0 0.00 0.00 0.00 67 1012.6
20260510030007 50 5 9.0 13.0 0.00 0.00 0.00 67 1012.4
20260510024506 50 20 10.0 17.0 0.00 0.00 0.00 66 1011.7
20260510023005 51 40 14.0 22.0 0.00 0.00 0.00 66 1010.6
20260510021502 51 33 17.0 25.0 0.00 0.00 0.00 65 1010.5
20260510020059 52 40 18.0 25.0 0.00 0.00 0.00 64 1010.1
20260510014556 52 22 20.0 31.0 0.00 0.00 0.00 64 1009.3
20260510013055 53 23 25.0 37.0 0.00 0.00 0.00 63 1009.1
20260510011554 53 360 24.0 37.0 0.00 0.00 0.00 64 1008.7
20260510010050 54 31 25.0 37.0 0.00 0.00 0.00 63 1007.9
20260510004551 54 24 28.0 41.0 0.00 0.00 0.00 63 1007.4
20260510003044 55 22 29.0 41.0 0.00 0.00 0.00 61 1006.5
20260510001543 55 25 31.0 42.0 0.00 0.00 0.00 61 1006.0
20260510000047 56 24 34.0 43.0 0.00 0.00 0.00 58 1005.5
20260509234536 59 19 28.0 41.0 0.00 0.00 0.00 51 1004.6
20260509233035 70 36 14.0 20.0 0.00 0.00 0.00 32 1003.5
20260509231536 71 88 5.0 11.0 0.00 0.00 0.00 32 1002.7
20260509230035 71 59 7.0 13.0 0.00 0.00 0.00 33 1002.4
20260509224532 71 86 7.0 14.0 0.00 0.00 0.00 32 1002.2
20260509223033 72 69 7.0 14.0 0.00 0.00 0.00 29 1002.3
20260509221533 73 96 7.0 15.0 0.00 0.00 0.00 31 1002.1
20260509220032 74 84 8.0 15.0 0.00 0.00 0.00 29 1002.3
20260509214528 73 78 6.0 16.0 0.00 0.00 0.00 29 1002.5
20260509213031 72 53 6.0 17.0 0.00 0.00 0.00 28 1002.7
20260509211523 72 39 8.0 13.0 0.00 0.00 0.00 27 1002.9
20260509210023 73 61 6.0 11.0 0.00 0.00 0.00 28 1002.9
20260509204520 73 127 5.0 16.0 0.00 0.00 0.00 27 1003.0
20260509203018 75 117 7.0 14.0 0.00 0.00 0.00 22 1003.0
20260509201516 76 132 5.0 12.0 0.00 0.00 0.00 21 1003.2
20260509200014 77 111 3.0 11.0 0.00 0.00 0.00 19 1003.3
20260509194512 76 148 8.0 16.0 0.00 0.00 0.00 19 1003.3
20260509193018 76 138 10.0 22.0 0.00 0.00 0.00 20 1003.3
20260509191509 75 123 8.0 24.0 0.00 0.00 0.00 21 1003.4
20260509190008 75 157 8.0 19.0 0.00 0.00 0.00 20 1003.3
20260509184522 75 137 10.0 22.0 0.00 0.00 0.00 20 1003.5
20260509183006 76 119 5.0 13.0 0.00 0.00 0.00 22 1003.3
20260509181503 75 103 5.0 15.0 0.00 0.00 0.00 24 1003.6
20260509180001 75 67 15.0 21.0 0.00 0.00 0.00 23 1003.9
20260509174624 74 52 11.0 17.0 0.00 0.00 0.00 24 1003.9
20260509173101 74 39 13.0 20.0 0.00 0.00 0.00 24 1004.0
20260509171559 74 24 11.0 19.0 0.00 0.00 0.00 23 1004.1
20260509170100 73 288 9.0 14.0 0.00 0.00 0.00 22 1004.0
20260509164553 72 20 12.0 18.0 0.00 0.00 0.00 25 1004.1
20260509163055 72 5 2.0 14.0 0.00 0.00 0.00 24 1004.3
20260509161550 72 37 8.0 16.0 0.00 0.00 0.00 25 1004.3
20260509160047 71 34 11.0 16.0 0.00 0.00 0.00 28 1004.4
20260509154546 71 355 7.0 18.0 0.00 0.00 0.00 24 1004.4
20260509153054 70 339 11.0 21.0 0.00 0.00 0.00 27 1004.3
20260509151541 70 349 10.0 15.0 0.00 0.00 0.00 28 1004.5
20260509150040 69 18 10.0 15.0 0.00 0.00 0.00 32 1004.6
20260509144539 68 9 10.0 17.0 0.00 0.00 0.00 28 1004.7
20260509143036 68 336 10.0 19.0 0.00 0.00 0.00 32 1004.8
20260509141533 67 360 13.0 21.0 0.00 0.00 0.00 32 1004.7
20260509140029 66 316 14.0 20.0 0.00 0.00 0.00 32 1004.9
20260509134526 65 314 14.0 17.0 0.00 0.00 0.00 34 1004.9
20260509133020 62 313 10.0 14.0 0.00 0.00 0.00 38 1004.9
20260509131519 56 5 3.0 7.0 0.00 0.00 0.00 48 1005.0
20260509130030 59 17 8.0 13.0 0.00 0.00 0.00 39 1004.9
20260509124520 60 313 12.0 15.0 0.00 0.00 0.00 37 1004.6
20260509123018 61 329 10.0 18.0 0.00 0.00 0.00 37 1004.5
20260509121518 57 309 11.0 15.0 0.00 0.00 0.00 41 1004.2
20260509120010 53 73 1.0 7.0 0.00 0.01 0.00 57 1004.2
20260509114510 57 87 2.0 10.0 0.00 0.01 0.00 49 1004.3
20260509113006 54 300 3.0 9.0 0.00 0.01 0.00 50 1004.0
20260509111504 53 236 4.0 7.0 0.00 0.01 0.00 51 1003.8
20260509110002 53 276 5.0 8.0 0.00 0.01 0.00 53 1003.7
20260509104505 52 254 2.0 6.0 0.00 0.01 0.00 55 1003.7
20260509103104 52 245 3.0 7.0 0.00 0.01 0.00 57 1003.7
20260509101618 53 211 4.0 8.0 0.00 0.01 0.00 57 1003.8
20260509094604 50 190 0.0 5.0 0.00 0.01 0.00 67 1003.8
20260509093055 50 334 0.0 3.0 0.00 0.01 0.00 65 1003.7
20260509091601 51 300 3.0 7.0 0.00 0.01 0.00 67 1003.5
20260509090100 50 256 1.0 3.0 0.00 0.01 0.00 68 1003.6
20260509084555 50 227 2.0 5.0 0.00 0.01 0.00 69 1003.7
20260509083057 50 275 0.0 4.0 0.00 0.01 0.00 70 1003.5
20260509081547 51 314 1.0 5.0 0.00 0.01 0.00 70 1003.7
20260509080047 51 5 2.0 4.0 0.00 0.01 0.00 67 1003.7
20260509074545 51 5 0.0 0.0 0.00 0.01 0.00 68 1003.9
20260509073039 53 11 2.0 4.0 0.00 0.01 0.00 67 1004.1
20260509071542 54 282 0.0 3.0 0.00 0.01 0.00 64 1004.1
20260509070032 55 282 1.0 3.0 0.00 0.01 0.00 65 1004.4
20260509064528 56 282 2.0 6.0 0.00 0.01 0.00 57 1004.3
20260509063025 57 263 3.0 9.0 0.00 0.01 0.00 56 1004.3
20260509061524 57 198 3.0 7.0 0.00 0.01 0.00 56 1004.5
20260509060021 57 197 1.0 4.0 0.00 0.01 0.01 55 1004.8